Location: Kershaw
(34.5481°N, 80.5823°W)
Time: 02:25:14
(UTC+00:00)

Explorer 7 - Pass Details

Date: 11 October 2022
Orbit: 481 x 665 km, 50.3° (Epoch: 01 December)

Event Time Altitude Azimuth Distance (km) Brightness Sun altitude
Rises 16:36:44 0° 314° (NW) 3,004 10.2 47.6°
Reaches altitude 10° 16:40:20 10° 341° (NNW) 2,081 9.5 47.7°
Maximum altitude 16:42:41 13° 11° (N) 1,851 9.3 47.8°
Drops below altitude 10° 16:45:00 10° 40° (NE) 2,053 9.6 47.9°
Sets 16:48:30 0° 67° (ENE) 2,930 10.4 48.0°
